ONEWEB-0052, 45156

Orbit data source: Space-Track

ONEWEB-0052, 45156 is a payload satellite owned by One Web (UK) in LEO that was launched on Thu, 06 Feb 2020 UTC via a SOYUZ-2-1B launch vehicle from the Tyuratam Missile And Space Complex (TTMTR). Payload-class satellites include a variety of spacecraft equipped with specific instruments for various scientific and technological missions. These include communications satellites like Starlink; space stations such as the ISS; scientific satellites like the Hubble; Earth observation satellites from companies like Planet Labs, Umbra, and HawkEye 360; GPS; miniature CubeSats for education and research; and military/defense satellites.

Loading next visibility...
Identifier
45156, 2020-008AB
Orbit
LEO
Country
Flag of UKUK
Related business
Manufacturer
One Web
Mission
Operational Commercial Communications
Bus & Motor
ARROW, Unknown motor
Mass
148 kg wet, ~140 kg dry
Launch date (UTC)
2020-02-06 (6 years ago)
Launch vehicle
SOYUZ-2-1B
Launch site
Tyuratam Missile And Space Complex (TTMTR)
Object type
Payload
Rocket body
Debris
Shape & HBR
Trap Box + 2 Pan, 6.7 m
Radar Cross Section
3.464 m², Large (>1 m²)

Expand to show TLE details & history
Last TLE update: 12 hours ago

TLE from 12 hours ago
0 ONEWEB-0052
1 45156U 20008AB  26126.47632020 -.00000177  00000-0 -54343-3 0  9991
2 45156  87.8855  44.5620 0001804  93.1411 266.9923 13.10371068302470
Epoch: 2026-05-06T11:25Z
TLE epoch observation values (Epoch: 2026-05-06T11:25:54.065Z)
Latitude
0.00001°
Longitude
8.75047°
Altitude
1,224.684 km
Speed
7.242 km/s
True Right ascension
02h 58m 14s
True Declination
0° 00' 00"
Sunlit
Object was in daylight at epoch
Visualization orbit readout
Latitude
Unknown
Longitude
Unknown
Altitude
Unknown
Speed
Unknown
Apparent Right ascension
Unknown
Apparent Declination
Unknown
Sunlit
N/A
Visualization observer readout
Local Sidereal Time
07:02:23
Azimuth
Unknown
Elevation
Unknown
Doppler factor
Unknown
Orbital elements
Apogee altitude
1,220.214 km
Perigee altitude
1,217.473 km
Semi-major axis
7,596.981 km
Eccentricity
0.00018
Inclination
87.8855°
RAAN
44.562°
Arg. of periapsis
93.1411°
True anomaly
266.97166°
Mean anomaly
266.9923°
Eccentric anomaly
266.98198°
Mean motion
3.27779 °/min
Orbital period
109.83 mins
BSTAR
-0.00054343
Loading maneuver chart data...
Computing Atmospheric mass density...
Loading historical data...
Loading historical data...
Loading historical data...
Loading historical data...
Loading historical data...
Loading historical data...
Loading historical data...

Documentation

Showing up to 5 results
|